TimeEDT,TemperatureF,Dew PointF,Humidity,Sea Level PressureIn,VisibilityMPH,Wind Direction,Wind SpeedMPH,Gust SpeedMPH,PrecipitationIn,Events,Conditions,WindDirDegrees,DateUTC
12:54 AM,46.9,42.1,83,29.79,10.0,SW,6.9,-,N/A,,Overcast,220,2012-10-20 04:54:00
1:54 AM,46.9,43.0,86,29.79,10.0,SW,5.8,-,N/A,,Overcast,230,2012-10-20 05:54:00
2:54 AM,46.9,43.0,86,29.80,10.0,SW,4.6,-,N/A,,Overcast,220,2012-10-20 06:54:00
3:54 AM,46.0,43.0,89,29.81,10.0,SSW,4.6,-,N/A,,Overcast,200,2012-10-20 07:54:00
4:54 AM,43.0,39.9,89,29.81,10.0,SSW,6.9,-,N/A,,Scattered Clouds,210,2012-10-20 08:54:00
5:54 AM,45.0,41.0,86,29.83,10.0,SSW,5.8,-,N/A,,Overcast,210,2012-10-20 09:54:00
6:54 AM,45.0,42.1,90,29.84,10.0,SW,5.8,-,N/A,,Overcast,230,2012-10-20 10:54:00
7:54 AM,46.0,42.1,86,29.84,10.0,SSW,8.1,-,N/A,,Overcast,210,2012-10-20 11:54:00
8:54 AM,46.9,43.0,86,29.87,10.0,WNW,5.8,-,N/A,,Overcast,290,2012-10-20 12:54:00
9:54 AM,48.9,45.0,86,29.88,10.0,West,8.1,-,N/A,,Overcast,260,2012-10-20 13:54:00
10:52 AM,50.0,44.6,82,29.90,10.0,WSW,11.5,-,N/A,,Mostly Cloudy,240,2012-10-20 14:52:00
10:54 AM,50.0,44.1,80,29.90,10.0,WSW,11.5,-,N/A,,Mostly Cloudy,240,2012-10-20 14:54:00
11:47 AM,50.0,42.8,76,29.91,10.0,WSW,11.5,-,N/A,,Mostly Cloudy,250,2012-10-20 15:47:00
11:54 AM,51.1,44.1,77,29.91,10.0,West,10.4,-,N/A,,Scattered Clouds,260,2012-10-20 15:54:00
12:54 PM,53.1,44.1,71,29.92,10.0,WSW,11.5,-,N/A,,Overcast,240,2012-10-20 16:54:00
1:54 PM,51.1,42.1,71,29.92,10.0,West,9.2,18.4,N/A,,Overcast,260,2012-10-20 17:54:00
2:54 PM,51.1,42.1,71,29.92,10.0,WSW,10.4,-,N/A,,Overcast,250,2012-10-20 18:54:00
3:01 PM,51.8,42.8,71,29.92,10.0,WSW,10.4,-,N/A,,Overcast,240,2012-10-20 19:01:00
3:54 PM,52.0,43.0,71,29.93,10.0,WSW,6.9,-,N/A,,Overcast,250,2012-10-20 19:54:00
4:54 PM,52.0,42.1,69,29.94,10.0,West,6.9,-,N/A,,Overcast,260,2012-10-20 20:54:00
5:54 PM,52.0,43.0,71,29.95,10.0,West,6.9,-,N/A,,Overcast,280,2012-10-20 21:54:00
6:54 PM,48.9,43.0,80,29.97,10.0,WSW,3.5,-,N/A,,Mostly Cloudy,250,2012-10-20 22:54:00
7:54 PM,48.0,42.1,80,29.98,10.0,Calm,Calm,-,N/A,,Overcast,0,2012-10-20 23:54:00
8:54 PM,45.0,42.1,90,29.99,10.0,South,4.6,-,N/A,,Mostly Cloudy,180,2012-10-21 00:54:00
9:54 PM,43.0,42.1,97,30.00,10.0,South,4.6,-,N/A,,Mostly Cloudy,180,2012-10-21 01:54:00
10:54 PM,46.0,43.0,89,30.01,10.0,South,3.5,-,N/A,,Overcast,170,2012-10-21 02:54:00
11:54 PM,44.1,42.1,93,30.02,10.0,Calm,Calm,-,N/A,,Mostly Cloudy,0,2012-10-21 03:54:00